• în Republica Moldova
  • Lista ţărilor
  • Pe 7 zile
  • Temperatura apei
  • Hartă satelitară
  • Meteo pe hartă
  • Widget-uri
  • user-avatar
    Intrare

    Meteo pe oră la Townsville

    Astăzi, 29 Mai, Luni

    Timp Temperatura Precipitaţii Vânt Presiune Umiditate
    00:00 +19°C° 0 mm 2 m/s 756 mmHg 96%
    01:00 +19°C° 0 mm 2 m/s 756 mmHg 96%
    02:00 +19°C° 0 mm 2 m/s 756 mmHg 97%
    03:00 +18°C° 0 mm 2 m/s 756 mmHg 97%
    04:00 +18°C° 0 mm 2 m/s 756 mmHg 98%
    05:00 +18°C° 0 mm 2 m/s 756 mmHg 98%
    06:00 +18°C° 0 mm 3 m/s 756 mmHg 98%
    07:00 +18°C° 0 mm 3 m/s 756 mmHg 97%
    08:00 +21°C° 0 mm 3 m/s 756 mmHg 88%
    09:00 +24°C° 0 mm 3 m/s 757 mmHg 78%
    10:00 +26°C° 0 mm 3 m/s 757 mmHg 65%
    11:00 +27°C° 0 mm 3 m/s 757 mmHg 59%
    12:00 +28°C° 0 mm 3 m/s 756 mmHg 54%
    13:00 +29°C° 0 mm 3 m/s 756 mmHg 48%
    14:00 +29°C° 0 mm 3 m/s 756 mmHg 50%
    15:00 +28°C° 0 mm 3 m/s 755 mmHg 52%
    16:00 +28°C° 0 mm 3 m/s 755 mmHg 54%
    17:00 +26°C° 0 mm 3 m/s 755 mmHg 62%
    18:00 +24°C° 0 mm 3 m/s 756 mmHg 71%
    19:00 +21°C° 0 mm 3 m/s 756 mmHg 80%
    20:00 +21°C° 0 mm 3 m/s 757 mmHg 81%
    21:00 +21°C° 0 mm 3 m/s 757 mmHg 82%
    22:00 +21°C° 0 mm 3 m/s 757 mmHg 82%
    23:00 +20°C° 0 mm 3 m/s 757 mmHg 82%

    Mâine, 30 Mai, Marţi

    Timp Temperatura Precipitaţii Vânt Presiune Umiditate
    00:00 +20°C° 0 mm 3 m/s 757 mmHg 81%
    01:00 +20°C° 0 mm 3 m/s 757 mmHg 80%
    02:00 +20°C° 0 mm 3 m/s 757 mmHg 80%
    03:00 +20°C° 0 mm 3 m/s 756 mmHg 80%
    04:00 +19°C° 0 mm 4 m/s 756 mmHg 80%
    05:00 +19°C° 0 mm 4 m/s 756 mmHg 79%
    06:00 +19°C° 0 mm 4 m/s 757 mmHg 79%
    07:00 +19°C° 0 mm 4 m/s 757 mmHg 78%
    08:00 +21°C° 0 mm 4 m/s 757 mmHg 71%
    09:00 +23°C° 0 mm 4 m/s 758 mmHg 65%
    10:00 +26°C° 0 mm 4 m/s 758 mmHg 58%
    11:00 +27°C° 0 mm 4 m/s 757 mmHg 55%
    12:00 +28°C° 0 mm 4 m/s 757 mmHg 52%
    13:00 +28°C° 0 mm 4 m/s 756 mmHg 48%
    14:00 +28°C° 0 mm 4 m/s 756 mmHg 51%
    15:00 +28°C° 0 mm 4 m/s 756 mmHg 53%
    16:00 +27°C° 0 mm 4 m/s 756 mmHg 56%
    17:00 +25°C° 0 mm 4 m/s 756 mmHg 66%
    18:00 +23°C° 0 mm 4 m/s 756 mmHg 75%
    19:00 +21°C° 0 mm 4 m/s 757 mmHg 85%
    20:00 +21°C° 0 mm 4 m/s 757 mmHg 85%
    21:00 +21°C° 0 mm 4 m/s 757 mmHg 85%
    22:00 +21°C° 0 mm 4 m/s 758 mmHg 85%
    23:00 +20°C° 0 mm 4 m/s 757 mmHg 85%

    Poimâine, 31 Mai, Miercuri

    Timp Temperatura Precipitaţii Vânt Presiune Umiditate
    00:00 +20°C° 0 mm 4 m/s 757 mmHg 85%
    01:00 +19°C° 0 mm 4 m/s 757 mmHg 85%
    02:00 +19°C° 0 mm 4 m/s 756 mmHg 86%
    03:00 +19°C° 0 mm 4 m/s 756 mmHg 88%
    04:00 +18°C° 0 mm 4 m/s 756 mmHg 89%
    05:00 +18°C° 0 mm 4 m/s 756 mmHg 90%
    06:00 +18°C° 0 mm 4 m/s 756 mmHg 91%
    07:00 +18°C° 0 mm 4 m/s 757 mmHg 92%
    08:00 +20°C° 0,1 mm 4 m/s 757 mmHg 84%
    09:00 +22°C° 0,1 mm 5 m/s 757 mmHg 76%
    10:00 +26°C° 0,1 mm 5 m/s 758 mmHg 69%
    11:00 +26°C° 0,3 mm 5 m/s 757 mmHg 68%
    12:00 +26°C° 0,3 mm 5 m/s 757 mmHg 67%
    13:00 +27°C° 0,3 mm 5 m/s 756 mmHg 67%
    14:00 +26°C° 0,1 mm 5 m/s 756 mmHg 68%
    15:00 +26°C° 0,1 mm 4 m/s 756 mmHg 70%
    16:00 +26°C° 0,1 mm 4 m/s 756 mmHg 72%
    17:00 +25°C° 0,1 mm 4 m/s 756 mmHg 75%
    18:00 +23°C° 0,1 mm 5 m/s 757 mmHg 78%
    19:00 +23°C° 0,1 mm 5 m/s 757 mmHg 81%
    20:00 +22°C° 0 mm 5 m/s 758 mmHg 80%
    21:00 +22°C° 0 mm 5 m/s 758 mmHg 80%
    22:00 +21°C° 0 mm 6 m/s 759 mmHg 79%
    23:00 +21°C° 0 mm 6 m/s 758 mmHg 78%

    1 Iunie, Joi

    Timp Temperatura Precipitaţii Vânt Presiune Umiditate
    00:00 +20°C° 0 mm 6 m/s 758 mmHg 77%
    01:00 +20°C° 0 mm 6 m/s 758 mmHg 76%
    02:00 +19°C° 0 mm 6 m/s 758 mmHg 76%
    03:00 +19°C° 0 mm 6 m/s 758 mmHg 76%
    04:00 +17°C° 0 mm 7 m/s 758 mmHg 76%
    05:00 +17°C° 0,1 mm 6 m/s 758 mmHg 74%
    06:00 +16°C° 0,1 mm 6 m/s 758 mmHg 71%
    07:00 +16°C° 0,1 mm 6 m/s 759 mmHg 68%
    08:00 +17°C° 0 mm 7 m/s 759 mmHg 63%
    09:00 +20°C° 0 mm 7 m/s 760 mmHg 57%
    10:00 +21°C° 0 mm 7 m/s 760 mmHg 51%
    11:00 +22°C° 0 mm 7 m/s 759 mmHg 50%
    12:00 +24°C° 0 mm 7 m/s 759 mmHg 49%
    13:00 +26°C° 0 mm 7 m/s 758 mmHg 48%
    14:00 +26°C° 0 mm 7 m/s 758 mmHg 50%
    15:00 +26°C° 0 mm 7 m/s 758 mmHg 53%
    16:00 +26°C° 0 mm 7 m/s 758 mmHg 55%
    17:00 +23°C° 0 mm 7 m/s 758 mmHg 62%
    18:00 +22°C° 0 mm 7 m/s 758 mmHg 69%
    19:00 +20°C° 0 mm 7 m/s 759 mmHg 75%
    20:00 +20°C° 0 mm 7 m/s 759 mmHg 78%
    21:00 +18°C° 0 mm 7 m/s 759 mmHg 80%
    22:00 +18°C° 0 mm 7 m/s 760 mmHg 82%
    23:00 +18°C° 0 mm 7 m/s 760 mmHg 84%

    2 Iunie, Vineri

    Timp Temperatura Precipitaţii Vânt Presiune Umiditate
    00:00 +17°C° 0 mm 7 m/s 759 mmHg 86%
    01:00 +17°C° 0 mm 8 m/s 759 mmHg 88%
    02:00 +17°C° 0 mm 7 m/s 759 mmHg 88%
    03:00 +17°C° 0 mm 7 m/s 759 mmHg 88%
    04:00 +17°C° 0 mm 7 m/s 759 mmHg 88%
    05:00 +16°C° 0 mm 7 m/s 759 mmHg 88%
    06:00 +16°C° 0 mm 7 m/s 759 mmHg 88%
    07:00 +16°C° 0 mm 7 m/s 760 mmHg 88%
    08:00 +17°C° 0 mm 7 m/s 760 mmHg 83%
    09:00 +20°C° 0 mm 7 m/s 760 mmHg 79%
    10:00 +21°C° 0 mm 8 m/s 761 mmHg 74%
    11:00 +22°C° 0 mm 8 m/s 760 mmHg 71%
    12:00 +23°C° 0 mm 8 m/s 759 mmHg 68%
    13:00 +24°C° 0 mm 8 m/s 759 mmHg 65%
    14:00 +24°C° 0 mm 8 m/s 759 mmHg 65%
    15:00 +24°C° 0 mm 8 m/s 758 mmHg 65%
    16:00 +24°C° 0 mm 8 m/s 758 mmHg 66%
    17:00 +23°C° 0 mm 8 m/s 759 mmHg 70%
    18:00 +21°C° 0 mm 7 m/s 759 mmHg 74%
    19:00 +20°C° 0 mm 7 m/s 760 mmHg 78%
    20:00 +18°C° 0 mm 7 m/s 760 mmHg 80%
    21:00 +18°C° 0 mm 7 m/s 760 mmHg 83%
    22:00 +17°C° 0 mm 7 m/s 760 mmHg 85%
    23:00 +17°C° 0 mm 7 m/s 760 mmHg 86%

    3 Iunie, Sâmbătă

    Timp Temperatura Precipitaţii Vânt Presiune Umiditate
    00:00 +17°C° 0 mm 7 m/s 760 mmHg 88%
    01:00 +16°C° 0 mm 7 m/s 759 mmHg 89%
    02:00 +16°C° 0,1 mm 6 m/s 759 mmHg 89%
    03:00 +16°C° 0,1 mm 6 m/s 759 mmHg 90%
    04:00 +16°C° 0,1 mm 6 m/s 759 mmHg 90%
    05:00 +16°C° 0,1 mm 6 m/s 759 mmHg 88%
    06:00 +17°C° 0,1 mm 6 m/s 759 mmHg 87%
    07:00 +17°C° 0,1 mm 6 m/s 760 mmHg 85%
    08:00 +18°C° 0,1 mm 7 m/s 760 mmHg 81%
    09:00 +20°C° 0,1 mm 7 m/s 760 mmHg 77%
    10:00 +21°C° 0,1 mm 7 m/s 760 mmHg 74%
    11:00 +22°C° 0,1 mm 7 m/s 759 mmHg 72%
    12:00 +22°C° 0,1 mm 7 m/s 759 mmHg 71%
    13:00 +23°C° 0,1 mm 7 m/s 758 mmHg 70%
    14:00 +23°C° 0,1 mm 7 m/s 758 mmHg 69%
    15:00 +23°C° 0,1 mm 7 m/s 758 mmHg 68%
    16:00 +23°C° 0,1 mm 7 m/s 757 mmHg 68%
    17:00 +22°C° 0,1 mm 7 m/s 758 mmHg 72%
    18:00 +21°C° 0,1 mm 7 m/s 758 mmHg 75%
    19:00 +20°C° 0,1 mm 7 m/s 758 mmHg 79%
    20:00 +18°C° 0 mm 7 m/s 759 mmHg 82%
    21:00 +18°C° 0 mm 7 m/s 759 mmHg 85%
    22:00 +17°C° 0 mm 7 m/s 759 mmHg 88%
    23:00 +17°C° 0,1 mm 7 m/s 759 mmHg 89%
    Arată mai mult